TimePDT,TemperatureF,Dew PointF,Humidity,Sea Level PressureIn,VisibilityMPH,Wind Direction,Wind SpeedMPH,Gust SpeedMPH,PrecipitationIn,Events,Conditions,WindDirDegrees,DateUTC
12:54 AM,51.1,46.0,83,30.03,9.0,South,4.6,-,N/A,,Partly Cloudy,180,2014-03-21 07:54:00
1:10 AM,51.8,46.4,82,29.99,9.0,South,4.6,-,N/A,,Mostly Cloudy,180,2014-03-21 08:10:00
1:54 AM,51.1,46.0,83,30.03,8.0,SSW,5.8,-,N/A,,Overcast,200,2014-03-21 08:54:00
2:54 AM,51.1,46.0,83,30.02,8.0,SSW,5.8,-,N/A,,Overcast,210,2014-03-21 09:54:00
3:54 AM,52.0,46.0,80,30.02,8.0,WSW,4.6,-,N/A,,Overcast,250,2014-03-21 10:54:00
4:54 AM,52.0,45.0,77,30.02,9.0,SSW,5.8,-,N/A,,Overcast,210,2014-03-21 11:54:00
5:54 AM,52.0,44.1,74,30.02,9.0,Calm,Calm,-,N/A,,Overcast,0,2014-03-21 12:54:00
6:54 AM,52.0,44.1,74,30.03,9.0,SSW,4.6,-,N/A,,Overcast,200,2014-03-21 13:54:00
7:54 AM,52.0,44.1,74,30.04,6.0,SW,3.5,-,N/A,,Haze,220,2014-03-21 14:54:00
8:54 AM,53.1,44.1,71,30.05,8.0,WSW,6.9,-,N/A,,Overcast,250,2014-03-21 15:54:00
9:22 AM,53.6,44.6,72,30.02,8.0,SW,6.9,-,N/A,,Overcast,230,2014-03-21 16:22:00
9:54 AM,54.0,44.1,69,30.06,9.0,West,6.9,-,N/A,,Overcast,260,2014-03-21 16:54:00
10:54 AM,55.9,44.1,64,30.07,9.0,Variable,4.6,-,N/A,,Overcast,0,2014-03-21 17:54:00
11:54 AM,57.0,45.0,64,30.07,9.0,Variable,6.9,-,N/A,,Overcast,0,2014-03-21 18:54:00
12:13 PM,57.2,44.6,63,30.03,9.0,NW,8.1,-,N/A,,Scattered Clouds,320,2014-03-21 19:13:00
12:54 PM,57.9,44.1,60,30.05,9.0,WNW,9.2,-,N/A,,Partly Cloudy,300,2014-03-21 19:54:00
1:01 PM,59.0,44.6,59,30.01,10.0,NW,10.4,-,N/A,,Overcast,320,2014-03-21 20:01:00
1:08 PM,59.0,44.6,59,30.01,9.0,NW,10.4,-,N/A,,Partly Cloudy,310,2014-03-21 20:08:00
1:54 PM,57.9,45.0,62,30.04,9.0,NW,12.7,-,N/A,,Partly Cloudy,320,2014-03-21 20:54:00
2:54 PM,60.1,43.0,53,30.04,10.0,WSW,13.8,19.6,N/A,,Clear,240,2014-03-21 21:54:00
3:54 PM,59.0,43.0,55,30.04,10.0,SW,9.2,19.6,N/A,,Clear,220,2014-03-21 22:54:00
4:54 PM,57.9,44.1,60,30.03,10.0,SW,8.1,19.6,N/A,,Clear,230,2014-03-21 23:54:00
5:54 PM,57.0,43.0,59,30.02,10.0,WSW,12.7,19.6,N/A,,Clear,240,2014-03-22 00:54:00
6:54 PM,55.0,43.0,64,30.03,10.0,WSW,9.2,-,N/A,,Clear,250,2014-03-22 01:54:00
7:54 PM,53.1,43.0,69,30.04,10.0,SW,4.6,-,N/A,,Clear,230,2014-03-22 02:54:00
8:54 PM,53.1,43.0,69,30.05,10.0,Calm,Calm,-,N/A,,Overcast,0,2014-03-22 03:54:00
9:54 PM,46.9,41.0,80,30.06,10.0,East,3.5,-,N/A,,Overcast,90,2014-03-22 04:54:00
10:54 PM,46.9,41.0,80,30.06,10.0,ENE,3.5,-,N/A,,Mostly Cloudy,70,2014-03-22 05:54:00
11:54 PM,46.0,39.9,79,30.07,10.0,East,3.5,-,N/A,,Overcast,80,2014-03-22 06:54:00